Wind_Speed
3 2 2 3 3 3 3 3 3 3 4 4 4 4 4 4 4 5 5 6 6 7 7 6 6 7 7 8 8 8 7 6 6 5 4 4 4 5 5 5 6 9 11
4 4 3 3 3 3 3 4 4 4 4 5 5 5 5 6 6 6 7 7 8 8 7 7 7 7 7 7 7 7 7 6 5 4 3 3 3 3 4 4 7 10 11
5 5 5 5 5 5 5 5 6 6 6 7 7 7 7 8 8 8 8 9 9 9 8 8 7 7 7 7 7 7 7 6 5 4 3 1 1 2 3 4 7 8 9
5 6 6 7 7 7 7 7 8 8 9 9 9 9 9 10 10 10 10 11 10 10 10 9 9 8 8 8 7 7 6 6 5 5 3 1 1 0 1 3 5 6 8
6 7 7 8 8 9 9 10 10 11 11 11 11 11 11 12 12 12 12 12 12 11 11 11 10 9 9 9 8 8 7 7 6 6 4 2 2 1 1 2 4 6 7
7 8 9 10 11 11 12 12 13 13 13 13 13 13 13 13 14 14 14 13 13 13 13 12 11 11 10 10 9 9 8 8 7 7 6 4 3 2 2 2 3 4 6
9 10 10 11 12 13 13 14 15 15 15 15 14 14 15 15 15 15 15 15 15 14 13 13 12 11 11 10 10 10 10 10 9 8 8 7 5 4 3 3 3 4 5
10 12 12 13 14 14 15 16 17 17 17 17 17 17 17 17 18 18 17 17 16 15 15 14 13 13 12 12 12 11 11 11 11 10 9 9 8 6 5 5 5 5 5
13 14 15 15 15 16 17 18 19 19 19 19 20 19 19 19 20 20 20 20 19 18 17 16 15 15 14 14 14 13 13 12 12 12 11 11 10 9 8 7 6 6 6
14 15 16 16 17 18 18 20 21 22 22 21 22 22 22 22 23 23 22 22 22 20 20 19 17 16 16 15 15 14 14 14 14 13 12 12 13 12 11 10 9 8 8
17 17 18 18 18 19 19 21 22 22 23 23 24 25 25 25 24 24 24 24 24 22 21 21 20 19 18 17 16 15 15 15 15 14 13 14 15 14 14 13 12 11 11
19 20 19 19 19 19 19 21 21 21 20 21 22 22 22 24 23 22 22 22 22 22 22 22 22 21 20 19 18 17 17 17 16 16 14 15 15 17 17 17 16 15 14
20 21 21 20 20 19 19 20 20 19 20 20 19 19 19 20 20 21 21 21 21 21 21 23 22 22 21 20 20 19 18 17 18 18 15 16 16 18 19 20 20 19 17
21 21 20 20 20 19 20 19 18 18 17 18 17 17 18 18 19 19 20 21 20 19 19 21 21 21 20 20 19 18 18 17 17 18 17 16 17 18 19 21 22 22 21
21 20 19 19 19 19 19 17 16 16 17 16 16 17 18 18 17 17 18 18 18 18 19 20 21 21 21 21 21 19 18 18 18 18 18 18 18 18 20 22 23 25 25
20 19 18 18 18 19 17 15 15 15 16 16 17 18 18 18 18 18 18 19 19 19 19 20 20 21 22 22 21 20 20 20 20 21 21 20 20 19 20 23 24 25 28
19 18 17 17 17 16 14 14 14 15 15 16 16 17 19 19 19 20 19 20 20 20 21 21 21 21 22 22 22 22 21 21 21 21 22 22 22 22 22 23 25 26 28
18 17 16 15 15 13 12 12 14 14 15 16 17 18 19 19 20 20 20 20 20 21 20 21 21 21 22 23 23 23 23 22 23 23 23 24 23 23 24 24 25 27 28
17 16 14 13 11 11 11 12 13 14 15 16 17 18 19 19 20 20 20 20 21 21 21 21 21 22 22 23 23 23 23 23 24 25 25 26 25 25 25 25 26 27 28
13 12 10 10 10 11 11 11 12 13 14 15 16 17 18 18 19 20 20 20 21 21 20 21 21 21 22 22 22 22 23 23 24 25 26 26 27 27 27 27 27 27 27
10 9 8 8 9 9 9 10 11 12 13 14 14 14 15 16 17 18 18 18 19 19 19 20 20 21 21 21 22 22 23 23 24 25 26 27 27 28 29 29 29 29 29
7 7 6 6 6 7 8 9 10 10 11 11 12 13 14 15 16 16 16 17 17 17 17 18 18 19 20 21 21 22 22 23 23 24 26 27 28 29 30 31 31 32 31
3 3 3 4 5 6 7 9 10 11 11 12 12 13 14 15 15 15 16 16 16 16 16 17 17 18 19 20 21 21 22 23 24 25 26 27 28 29 30 31 32 33 34
1 0 2 4 5 7 9 10 11 12 13 14 14 15 15 16 16 16 16 16 16 16 17 17 17 18 19 20 20 21 22 23 24 25 26 27 28 29 30 31 32 34 35
3 3 4 6 8 9 10 11 13 14 14 15 16 16 16 16 16 17 17 18 18 18 18 19 19 20 20 21 22 22 23 24 25 26 27 28 28 30 31 32 33 34 35
4 5 6 8 9 11 12 13 14 15 16 17 17 17 17 17 17 18 19 19 20 20 20 21 21 22 23 24 24 25 25 26 27 28 29 30 31 31 31 32 34 35 35
Wind_Direction
341 349 9 23 25 22 6 350 338 323 313 309 306 304 303 309 315 321 329 336 341 345 350 358 4 9 10 8 7 8 10 12 16 24 30 39 50 59 65 81 112 121 127
320 327 336 344 350 349 342 335 328 316 308 303 299 297 296 298 301 305 311 317 323 327 332 339 347 353 357 359 357 356 359 0 2 7 14 25 44 58 65 88 113 120 129
309 313 319 322 325 325 326 323 316 309 305 301 299 295 294 295 298 300 303 307 311 314 317 323 329 334 337 341 343 342 342 345 346 348 343 356 27 49 69 84 99 119 130
307 313 316 316 317 317 317 315 310 307 304 301 299 296 294 294 295 296 297 300 302 305 307 310 315 319 320 322 324 327 326 326 327 327 320 331 330 336 95 87 96 118 132
311 315 316 315 314 312 309 307 305 305 303 301 300 298 297 296 296 296 295 295 296 298 299 300 304 307 308 309 310 310 310 310 307 306 311 306 282 239 162 119 114 115 134
320 320 320 318 315 311 308 306 305 305 304 303 301 298 297 295 294 294 292 292 291 292 292 292 293 296 297 299 299 298 296 296 295 294 293 289 276 247 209 172 150 133 138
327 324 319 314 313 310 306 305 305 303 302 300 298 296 296 295 293 291 289 288 288 287 285 285 286 288 290 292 291 291 288 286 284 287 283 274 266 251 228 210 195 171 156
329 328 320 313 308 304 300 297 298 298 296 293 291 290 290 291 290 288 285 283 282 282 281 280 282 283 284 286 286 285 284 281 279 280 276 268 257 249 238 225 218 205 187
324 323 319 310 303 299 295 292 291 290 288 287 287 285 285 284 283 282 282 279 278 277 276 274 275 277 279 282 283 281 279 277 275 276 274 263 253 247 241 231 226 221 207
316 317 316 310 302 297 293 290 287 286 283 283 283 282 281 281 280 277 277 274 272 273 270 268 269 272 273 276 278 278 276 272 271 272 269 261 251 245 241 234 228 227 222
310 312 314 310 304 298 293 290 290 288 284 281 282 280 277 278 278 275 272 272 269 268 266 263 264 266 268 270 273 276 275 271 270 267 267 263 253 245 240 235 230 228 226
307 309 311 310 305 301 294 291 291 289 287 284 283 284 282 278 279 277 274 276 272 268 264 259 259 263 263 264 268 271 271 269 266 264 265 263 257 246 241 236 232 229 227
304 306 308 308 304 301 298 295 292 288 287 287 285 285 286 282 278 278 275 275 276 271 268 261 258 259 261 261 263 265 267 269 265 262 262 264 260 250 243 236 232 230 228
301 304 305 305 303 300 300 297 292 287 287 288 287 287 288 285 283 280 280 278 279 277 274 270 263 262 261 263 265 267 265 267 267 264 260 262 261 252 245 237 234 232 230
300 302 301 302 300 298 297 295 292 288 288 291 289 290 287 288 288 286 283 282 282 280 280 277 271 266 265 265 265 267 265 262 265 265 261 259 258 254 248 241 238 234 231
296 298 297 299 298 297 294 294 294 293 295 293 290 290 291 291 289 286 284 284 284 283 281 278 274 271 268 267 267 265 264 262 263 262 261 258 257 257 251 244 241 239 234
292 295 294 295 297 298 293 292 294 295 296 296 295 294 293 294 292 290 289 287 285 283 280 278 276 274 272 271 269 267 265 263 262 261 261 261 258 258 255 249 243 241 237
285 289 292 294 295 296 294 293 295 297 298 299 298 296 295 295 294 293 292 289 286 284 282 279 278 276 273 272 270 268 267 265 263 260 259 260 258 256 256 253 247 243 239
279 281 288 289 291 293 293 295 299 301 302 302 300 298 296 295 294 293 293 290 287 285 284 281 280 277 275 274 272 270 268 265 262 260 259 258 257 255 254 252 249 246 242
269 275 285 287 292 293 295 301 305 307 307 306 304 302 301 298 298 297 295 292 290 288 285 283 281 279 277 275 274 272 269 266 263 260 259 258 256 254 253 251 249 248 246
262 269 281 287 295 300 305 309 312 312 311 310 310 309 308 307 304 302 300 296 293 290 287 285 282 280 279 277 275 273 272 268 266 264 261 259 257 255 253 251 249 248 248
256 265 280 291 305 315 321 324 324 323 323 323 322 320 319 316 312 309 306 303 299 296 292 288 285 282 280 279 277 276 273 271 269 267 263 261 258 256 253 251 250 249 249
254 258 284 305 323 332 337 338 338 337 336 335 331 328 326 323 321 318 314 311 306 303 299 295 291 287 285 282 280 277 276 274 272 268 266 263 261 259 256 253 251 249 249
133 12 342 347 353 352 349 347 346 345 342 340 336 333 329 326 324 322 319 316 313 308 304 301 297 294 291 288 285 281 279 277 275 272 269 266 263 261 258 255 252 250 249
67 35 10 6 3 357 353 350 348 345 341 337 334 331 329 326 324 323 320 318 315 311 307 304 301 298 295 292 289 286 283 280 278 276 273 269 265 262 260 257 255 252 250
35 21 12 5 358 353 349 344 340 336 334 332 330 328 326 324 321 319 317 316 315 312 309 306 304 301 298 295 292 289 286 283 281 278 275 272 269 265 262 259 256 254 252
Height
5909 5909 5909 5910 5910 5910 5911 5911 5911 5911 5911 5911 5910 5910 5910 5909 5909 5908 5908 5907 5906 5906 5905 5904 5904 5903 5902 5901 5901 5900 5899 5898 5898 5898 5898 5898 5898 5898 5898 5898 5898 5899 5900
5909 5909 5909 5909 5910 5910 5910 5911 5911 5911 5911 5911 5910 5910 5910 5909 5909 5908 5908 5907 5907 5906 5905 5905 5904 5903 5903 5902 5901 5901 5900 5899 5899 5899 5899 5899 5899 5899 5899 5899 5899 5900 5901
5908 5908 5908 5909 5909 5909 5910 5910 5910 5910 5910 5910 5910 5909 5909 5909 5908 5908 5907 5907 5906 5906 5905 5905 5904 5903 5903 5902 5902 5901 5901 5900 5900 5900 5899 5899 5900 5900 5900 5900 5900 5901 5902
5908 5908 5908 5908 5908 5908 5909 5909 5909 5909 5909 5909 5909 5909 5908 5908 5907 5907 5907 5906 5906 5905 5905 5904 5904 5903 5903 5902 5902 5901 5901 5901 5900 5900 5900 5900 5900 5901 5901 5902 5902 5902 5903
5908 5908 5907 5907 5907 5907 5908 5908 5908 5908 5908 5908 5907 5907 5907 5907 5906 5906 5905 5905 5904 5904 5903 5903 5903 5902 5902 5901 5901 5901 5901 5901 5901 5901 5901 5901 5901 5901 5902 5902 5903 5904 5904
5907 5907 5907 5906 5906 5906 5906 5906 5906 5906 5906 5906 5906 5906 5905 5905 5905 5904 5904 5903 5903 5902 5902 5902 5901 5901 5900 5900 5900 5900 5900 5900 5900 5900 5901 5901 5901 5902 5902 5903 5904 5905 5905
5906 5906 5906 5905 5905 5905 5905 5905 5905 5904 5904 5904 5904 5903 5903 5903 5903 5902 5902 5901 5901 5900 5900 5900 5899 5899 5899 5898 5898 5898 5899 5899 5899 5900 5900 5901 5901 5902 5902 5903 5904 5905 5906
5904 5904 5904 5904 5904 5904 5904 5903 5903 5903 5902 5902 5901 5901 5900 5900 5900 5900 5899 5899 5898 5898 5898 5897 5897 5897 5897 5897 5896 5896 5897 5897 5897 5898 5899 5899 5900 5901 5902 5903 5904 5905 5906
5901 5901 5901 5901 5901 5901 5901 5901 5901 5900 5900 5899 5899 5898 5898 5897 5896 5896 5896 5896 5895 5895 5895 5895 5895 5895 5895 5894 5894 5894 5894 5894 5895 5896 5897 5897 5898 5900 5901 5903 5904 5905 5906
5899 5899 5898 5898 5898 5898 5898 5897 5897 5896 5896 5895 5895 5895 5894 5893 5892 5892 5892 5891 5891 5891 5891 5892 5892 5892 5892 5892 5892 5892 5892 5892 5893 5894 5895 5895 5896 5898 5900 5901 5903 5904 5906
5895 5895 5895 5895 5894 5894 5894 5893 5893 5892 5891 5891 5891 5890 5889 5888 5888 5887 5887 5887 5886 5886 5887 5887 5888 5889 5889 5889 5889 5889 5889 5889 5890 5891 5892 5892 5893 5895 5897 5899 5901 5903 5905
5891 5891 5891 5891 5891 5890 5890 5889 5888 5888 5886 5886 5885 5885 5884 5883 5883 5883 5882 5882 5881 5881 5881 5882 5883 5884 5885 5885 5886 5886 5886 5886 5887 5888 5889 5889 5890 5892 5894 5897 5899 5901 5903
5888 5888 5887 5887 5887 5886 5885 5884 5883 5883 5882 5881 5881 5880 5880 5879 5878 5878 5878 5877 5877 5876 5876 5877 5878 5879 5880 5881 5882 5882 5882 5883 5883 5884 5886 5886 5886 5889 5891 5893 5896 5898 5900
5884 5884 5884 5883 5882 5881 5881 5880 5879 5878 5878 5877 5877 5876 5875 5875 5874 5873 5873 5873 5873 5872 5872 5873 5873 5874 5875 5876 5877 5878 5878 5879 5879 5880 5882 5883 5883 5885 5887 5889 5892 5895 5897
5881 5880 5880 5879 5879 5878 5877 5876 5875 5875 5874 5874 5873 5872 5871 5871 5871 5870 5869 5869 5869 5869 5869 5869 5869 5869 5870 5871 5872 5873 5874 5874 5875 5876 5877 5879 5880 5881 5883 5886 5888 5891 5893
5877 5877 5876 5876 5875 5874 5873 5872 5872 5871 5870 5870 5869 5868 5867 5867 5867 5866 5866 5865 5865 5865 5865 5864 5865 5865 5866 5866 5868 5869 5869 5870 5871 5871 5873 5875 5875 5877 5879 5881 5883 5886 5889
5873 5873 5873 5872 5872 5871 5870 5869 5869 5868 5867 5867 5866 5865 5864 5863 5862 5862 5861 5861 5860 5860 5860 5860 5860 5860 5861 5861 5862 5863 5864 5865 5866 5867 5867 5869 5871 5872 5874 5876 5878 5881 5883
5870 5870 5870 5869 5869 5868 5867 5867 5866 5865 5864 5863 5862 5861 5860 5859 5858 5857 5857 5856 5856 5855 5855 5855 5855 5855 5856 5856 5857 5858 5859 5860 5861 5861 5862 5864 5866 5867 5869 5870 5873 5875 5878
5866 5867 5867 5867 5866 5866 5865 5864 5864 5862 5861 5860 5859 5857 5856 5855 5854 5853 5853 5852 5851 5851 5850 5850 5850 5850 5850 5850 5851 5852 5853 5854 5855 5856 5857 5858 5860 5862 5863 5865 5867 5869 5872
5863 5864 5864 5864 5864 5863 5863 5862 5861 5859 5858 5857 5856 5854 5853 5851 5850 5849 5848 5847 5846 5846 5845 5845 5845 5845 5845 5845 5845 5846 5847 5848 5848 5850 5851 5852 5854 5856 5857 5859 5861 5863 5866
5861 5862 5862 5862 5862 5861 5860 5859 5858 5857 5856 5854 5853 5851 5849 5848 5847 5845 5844 5843 5842 5841 5841 5840 5840 5840 5840 5840 5840 5840 5841 5841 5842 5843 5844 5846 5847 5849 5850 5852 5855 5857 5859
5859 5860 5860 5860 5860 5859 5858 5857 5856 5855 5854 5852 5850 5848 5847 5845 5844 5842 5841 5840 5839 5838 5837 5836 5835 5835 5835 5835 5835 5835 5835 5836 5836 5837 5838 5839 5840 5841 5843 5845 5848 5850 5852
5858 5859 5859 5859 5858 5857 5857 5855 5854 5853 5851 5850 5848 5847 5845 5843 5841 5840 5838 5837 5835 5834 5833 5832 5831 5830 5830 5830 5829 5829 5829 5829 5830 5830 5831 5832 5833 5834 5836 5838 5840 5842 5845
5857 5858 5858 5857 5856 5856 5855 5853 5852 5851 5849 5848 5846 5844 5843 5841 5839 5837 5835 5834 5832 5831 5830 5829 5827 5826 5825 5825 5824 5824 5823 5823 5823 5823 5824 5825 5825 5826 5828 5830 5832 5834 5836
5856 5856 5856 5856 5855 5854 5853 5851 5850 5849 5847 5846 5844 5842 5840 5839 5837 5835 5833 5831 5829 5828 5826 5825 5823 5822 5821 5820 5819 5818 5817 5817 5816 5816 5817 5817 5818 5819 5820 5822 5824 5826 5828
5855 5855 5855 5854 5853 5852 5851 5849 5848 5847 5845 5843 5842 5840 5838 5836 5834 5832 5830 5828 5826 5824 5822 5820 5819 5817 5815 5814 5812 5811 5811 5810 5809 5809 5809 5809 5809 5811 5812 5813 5815 5816 5819